Content
SEND FEEDBACK

Daily
Averages
Monthly
Summary
United Kingdom

WYMESWOLD, ENGLAND


Home > Europe > United Kingdom > England
Elevation: 272 feet     Latitude: 52 48N     Longitude: 001 08W

WEATHER
 
SELECT A DAY
Number of Records: 287,517;   Date Range: 7/1/96 - 8/25/14
 
SHARE

PRINT THIS DATA

[ ← Previous Day ]
WEATHER ALMANAC - OCTOBER 29, 2013
[ Next Day → ]
[ °C ]   °F
Weather ElementAverageHighLow
Temperature47.1 °F51.8 °F (11:20 am)42.8 °F (10:50 pm)
Dewpoint42 °F44.6 °F (4:20 am)39.2 °F (11:50 am)
Humidity82.8 %93 % (2:50 am)62 % (11:50 am)
Barometer29.77 in30.01 in (11:20 pm)29.50 in (12:50 am)
Wind Speed16.7 mph25.3 mph (11:50 am)
Weather ElementAverage
Visibility6.2 mi
Wind DirectionWSW (263.2 °)

Weather ElementTotal
Precipitation---
Heating Degree Days17.7 (Base 65)
Averaged from 47 records on October 29, 2013
WEATHER CONDITIONS BREAKOUT
WIND DIRECTION BREAKOUT
WEATHER BY HOUR - OCTOBER 29, 2013
[ °C ]   °F
Local TimeTemperatureDewpointHumidityBarometerVisibilityWind DirectionWind SpeedGust SpeedPrecipitationEventsConditions
12:50 AM46.4 °F42.8 °F87 %29.50 inWSW (240°)13.8 mphClear
1:20 AM46.4 °F42.8 °F87 %29.50 inWSW (240°)15.0 mphClear
1:50 AM48.2 °F42.8 °F82 %29.53 in6.2 miWSW (240°)15.0 mphScattered Clouds
2:20 AM46.4 °F42.8 °F87 %29.53 in6.2 miSW (220°)11.5 mphScattered Clouds
2:50 AM44.6 °F42.8 °F93 %29.53 in6.2 miSW (230°)12.7 mphScattered Clouds
3:20 AM46.4 °F42.8 °F87 %29.56 in6.2 miWSW (240°)13.8 mphScattered Clouds
3:50 AM46.4 °F42.8 °F87 %29.56 in6.2 miWSW (250°)17.3 mphScattered Clouds
4:20 AM46.4 °F44.6 °F93 %29.59 in6.2 miWest (260°)17.3 mphLight Drizzle
4:50 AM46.4 °F44.6 °F93 %29.59 in6.2 miWest (270°)16.1 mphLight Drizzle
5:20 AM46.4 °F44.6 °F93 %29.62 in6.2 miWest (280°)18.4 mphLight Drizzle
5:50 AM46.4 °F44.6 °F93 %29.62 in6.2 miWest (280°)13.8 mphLight Drizzle
6:20 AM46.4 °F44.6 °F93 %29.65 in6.2 miWNW (300°)9.2 mphLight Drizzle
6:50 AM46.4 °F44.6 °F93 %29.65 in6.2 miWest (270°)13.8 mphMostly Cloudy
7:20 AM46.4 °F44.6 °F93 %29.68 in6.2 miWest (260°)10.4 mphMostly Cloudy
7:50 AM46.4 °F42.8 °F87 %29.68 in6.2 miWest (260°)12.7 mphMostly Cloudy
8:20 AM48.2 °F44.6 °F87 %29.71 in6.2 miWest (280°)16.1 mphScattered Clouds
8:50 AM48.2 °F42.8 °F82 %29.74 in6.2 miWest (280°)19.6 mphScattered Clouds
9:20 AM46.4 °F42.8 °F87 %29.74 in6.2 miWest (280°)17.3 mphPartly Cloudy
9:50 AM48.2 °F44.6 °F87 %29.74 in6.2 miWest (270°)18.4 mphPartly Cloudy
10:20 AM50.0 °F42.8 °F76 %29.77 in6.2 miWest (270°)20.7 mphPartly Cloudy
10:50 AM50.0 °F42.8 °F76 %29.77 in6.2 miWest (270°)19.6 mphScattered Clouds
11:20 AM51.8 °F41.0 °F67 %29.80 in6.2 miWest (280°)23.0 mphScattered Clouds
11:50 AM51.8 °F39.2 °F62 %29.80 in6.2 miWest (280°)25.3 mphScattered Clouds
12:20 PM51.8 °F39.2 °F62 %29.80 in6.2 miWest (280°)23.0 mphScattered Clouds
12:50 PM51.8 °F39.2 °F62 %29.80 in6.2 miWest (270°)25.3 mphPartly Cloudy
1:20 PM51.8 °F39.2 °F62 %29.80 in6.2 miWest (270°)25.3 mphScattered Clouds
1:50 PM51.8 °F41.0 °F67 %29.83 in6.2 miWest (280°)18.4 mphRainLight Rain Showers
2:20 PM48.2 °F42.8 °F82 %29.83 in6.2 miWNW (290°)19.6 mphRainRain Showers
2:50 PM46.4 °F42.8 °F87 %29.83 in6.2 miWest (280°)12.7 mphRainRain Showers
3:20 PM48.2 °F42.8 °F82 %29.83 in6.2 miWest (260°)15.0 mphRainRain Showers
3:50 PM48.2 °F42.8 °F82 %29.86 in6.2 miWest (280°)16.1 mphRainRain Showers
4:20 PM46.4 °F41.0 °F81 %29.86 in6.2 miWest (270°)17.3 mphRainLight Rain Showers
4:50 PM46.4 °F41.0 °F81 %29.86 in6.2 miWest (270°)18.4 mphRainLight Rain Showers
5:20 PM48.2 °F41.0 °F76 %29.89 in6.2 miWest (260°)16.1 mphRainLight Rain Showers
5:50 PM46.4 °F41.0 °F81 %29.89 in6.2 miWest (270°)16.1 mphPartly Cloudy
6:20 PM46.4 °F41.0 °F81 %29.89 in6.2 miWest (260°)15.0 mphPartly Cloudy
6:50 PM46.4 °F41.0 °F81 %29.89 in6.2 miWest (270°)17.3 mphPartly Cloudy
7:20 PM46.4 °F41.0 °F81 %29.92 in6.2 miWest (260°)24.2 mphPartly Cloudy
7:50 PM46.4 °F41.0 °F81 %29.92 in6.2 miWest (260°)19.6 mphRainLight Rain
8:20 PM46.4 °F41.0 °F81 %29.95 in6.2 miWest (260°)15.0 mphRainLight Rain
8:50 PM44.6 °F41.0 °F87 %29.95 in6.2 miWSW (250°)13.8 mphPartly Cloudy
9:20 PM44.6 °F41.0 °F87 %29.95 in6.2 miWSW (250°)15.0 mphPartly Cloudy
9:50 PM44.6 °F41.0 °F87 %29.98 in6.2 miWSW (250°)15.0 mphPartly Cloudy
10:20 PM44.6 °F41.0 °F87 %29.98 in6.2 miWSW (250°)13.8 mphPartly Cloudy
10:50 PM42.8 °F39.2 °F87 %29.98 inWSW (240°)13.8 mphClear
11:20 PM42.8 °F39.2 °F87 %30.01 inWSW (240°)13.8 mphClear
11:50 PM42.8 °F39.2 °F87 %30.01 inWSW (250°)12.7 mphClear
Hourly data recorded from EGNX, located miles away from Wymeswold, England







STORIES FROM OUR PARTNERS